Weather Service Report


476 
FPUS83 KFGF 190831
OPUFGF
PRAIRIE TO PINES WEATHER ROUNDUP
NATIONAL WEATHER SERVICE EASTERN NORTH DAKOTA/GRAND FORKS ND
300 AM CDT SUN APR 19 2015

 **SATELLITE DATA USED TO AUGMENT SKY COVER AT AUTOMATED STATIONS**
 *****  WEATHER ACROSS EASTERN NORTH DAKOTA  *****
  
CITY           SKY/WX    TMP DP  RH WIND       PRES   REMARKS
GRAND FORKS    LGT RAIN  49  45  86 NW7       29.79F                  
GRAND FORKS AF DRIZZLE   50  45  81 NW6       29.78F                  
GRAND CITY NWS   N/A     48 N/A N/A NW2         N/A                   
BUXTON           N/A     51  50  97 CALM        N/A                   
DEVILS LAKE    CLOUDY    46  41  81 NW17      29.81F                  
FARGO          RAIN      52  50  93 CALM      29.76F FOG              
WAHPETON ARPT  CLOUDY    46  45  93 E12       29.73F                  
$$

 *****  WEATHER ACROSS CENTRAL AND WESTERN NORTH DAKOTA  *****
  
CITY           SKY/WX    TMP DP  RH WIND       PRES   REMARKS
JAMESTOWN      LGT RAIN  47  45  93 NW14G21   29.79F                  
BISMARCK       CLOUDY    45  38  76 N14       29.90F                  
MINOT          CLOUDY    43  33  68 W17       29.91F                  
MINOT AFB      CLOUDY    42  38  89 NW13      29.91F                  
GARRISON         N/A     42  35  76 NW17      29.93F                  
WILLISTON      CLEAR     37  26  64 W13       30.02F                  
DICKINSON      MOCLDY    38  30  73 W10       29.99S                  
HETTINGER      CLOUDY    39  31  72 NW14      30.01S                  
$$

 *****  OTHER OBSERVATIONS NORTHEAST NORTH DAKOTA  *****
  
CITY           SKY/WX    TMP DP  RH WIND       PRES   REMARKS
WALHALLA       LGT RAIN  48  48 100 W6        29.80S                  
LANGDON        DRIZZLE   46  43  87 N10       29.80F                  
CAVALIER       LGT RAIN  50  41  71 NW8       29.79S                  
GRAFTON        DRIZZLE   50  48  93 W14       29.79S                  
CANDO          LGT RAIN  45  43  93 NW14      29.84S                  
FORT TOTTEN      N/A     45  44  95 NW6       29.95S                  
ROLLA          LGT RAIN  43  41  93 NW17G23   29.84F                  
RUGBY            N/A    N/A N/A N/A NW15      29.85F                  
 ***** THE ABOVE OBSERVATIONS ARE NON NWS ARE NOT QUALITY
        CONTROLLED AND MAY MIS-REPORT RAIN FOR SNOW...
$$

 *****  OTHER OBSERVATIONS SOUTHEAST NORTH DAKOTA *****
  
CITY           SKY/WX    TMP DP  RH WIND       PRES   REMARKS
COOPERSTOWN    NOT AVBL                                               
VALLEY CITY    LGT RAIN  46  46 100 NW16      29.78F                  
OAKES            N/A     48  48 100 NW17G23   29.76F                  
GWINNER        CLOUDY    50  50 100 NW8       29.77F                  
SHEYENNE NWR     N/A     50  49  97 CALM      29.95S                  
BUFFALO        NOT AVBL                                               
WYNDMERE         N/A     50  50 100 NE3         N/A                   
 ***** THE ABOVE OBSERVATIONS ARE NON NWS ARE NOT QUALITY
       CONTROLLED AND MAY MIS-REPORT RAIN FOR SNOW...
$$

  *****  WEATHER ACROSS NORTHERN MINNESOTA  *****     
  
CITY           SKY/WX    TMP DP  RH WIND       PRES   REMARKS
FLAG ISLAND    CLOUDY    43  28  56 SE9       29.80F                  
WARROAD        CLOUDY    48  36  61 S14       29.80S                  
ROSEAU         CLOUDY    52  36  54 S15       29.79F                  
HALLOCK        LGT RAIN  54  43  66 W14       29.77S                  
THF RVR FALLS  CLOUDY    52  34  50 S7        29.80F                  
HALSTAD          N/A     52  50  93 CALM        N/A                   
FOSSTON        LGT RAIN  48  36  61 SE7       29.79F                  
BAUDETTE       CLOUDY    46  29  51 SE8       29.83F                  
WASKISH        CLOUDY    46  30  53 CALM      29.82F                  
CROOKSTON      LGT RAIN  50  45  81 S5        29.79F                  
$$
  *****  WEATHER ACROSS CENTRAL AND WEST MINNESOTA  *****     
  
CITY           SKY/WX    TMP DP  RH WIND       PRES   REMARKS
BEMIDJI        LGT RAIN  40  39  94 E7        29.81F                  
PARK RAPIDS    RAIN      44  41  89 E10       29.79F FOG              
WADENA         MIX PCPN  43  41  93 E8        29.76F                  
DETROIT LAKES  LGT RAIN  46  45  93 SE12      29.77F                  
MOORHEAD       RAIN      50  48  93 CALM      29.77F                  
FERGUS FALLS   LGT RAIN  46  45  93 E9G20     29.73F                  
ELBOW LAKE     LGT RAIN  46  46  98 E14G21    29.70F                  
MORRIS MN      CLOUDY    55  54  94 S12       29.68F FOG              
STAPLES        LGT RAIN  43  43 100 E8        29.77F                  
WHEATON        CLOUDY    46  45  93 N5        29.72F                  
$$
  *****  WEATHER ELSEWHERE ACROSS MINNESOTA  *****     
  
CITY           SKY/WX    TMP DP  RH WIND       PRES   REMARKS
DULUTH         RAIN      38  33  82 E14       29.91F                  
INTRNTL FALLS  CLOUDY    43  23  45 E7        29.86F                  
ELY            CLOUDY    43  23  45 SE8       29.91F                  
CLOQUET        LGT RAIN  36  34  93 E8        29.88F                  
BRAINERD       LGT RAIN  42  40  92 E7        29.80F FOG              
HIBBING        LGT RAIN  40  30  67 SE6       29.90F                  
ALEXANDRIA     LGT RAIN  46  44  93 E15       29.73F FOG              
SAINT CLOUD    LGT RAIN  48  45  89 E6        29.79F                  
MINNEAPOLIS    CLOUDY    52  40  63 E15       29.80F                  
$$

  *****  WEATHER ACROSS SOUTH DAKOTA  *****
  
CITY           SKY/WX    TMP DP  RH WIND       PRES   REMARKS
SIOUX FALLS    CLOUDY    57  55  93 SW8       29.73F                  
BROOKINGS      CLOUDY    57  55  94 SW8       29.73S VSB 1/2          
WATERTOWN      LGT RAIN  51  50  96 NE5       29.71F FOG              
HURON          CLOUDY    49  48  97 NW17      29.76R                  
SISSETON         N/A     50  49  96 NE12      29.71F                  
ABERDEEN       CLOUDY    49  47  93 N17       29.78F                  
MITCHELL       CLOUDY    55  53  93 W12       29.77S FOG              
PIERRE         CLOUDY    47  45  93 NW22G29   29.86R                  
MOBRIDGE       CLOUDY    47  41  80 N21G36    29.85S                  
RAPID CITY     CLOUDY    44  34  67 NW24G32   29.99F                  
$$

  *****  SOME WEATHER IN NEARBY STATES *****
  
CITY           SKY/WX    TMP DP  RH WIND       PRES   REMARKS
GLASGOW MT     CLEAR     34  22  61 W9        30.13F                  
GREAT FALLS MT CLOUDY    36  32  85 SW6       30.27S                  
CHEYENNE WY    CLOUDY    36  32  85 N21G33    30.04R                  
SCOTTSBLUFF NE CLOUDY    46  32  58 N17       30.01R                  
OMAHA NE       CLOUDY    57  56  96 S5        29.77F                  
DES MOINES IA  CLOUDY    58  56  93 S3        29.78F                  
DAVENPORT IA   MOCLDY    52  36  54 E9        29.84F                  
CHICAGO IL     CLOUDY    55  25  31 E10G23    29.91F                  
EAU CLAIRE WI  CLOUDY    46  34  62 E10       29.87F                  
LA CROSSE WI   CLOUDY    55  31  39 E7        29.86F                  
$$

  *****  SOME NATIONAL WEATHER *****
  
CITY           SKY/WX    TMP DP  RH WIND       PRES   REMARKS
LA GUARDIA NY  PTCLDY    53  28  38 NE6       30.14R                  
RALEIGH NC     CLOUDY    64  62  93 CALM      29.99S                  
ATLANTA GA     LGT RAIN  67  65  93 SE5       29.88F FOG              
NEW ORLEANS LA PTCLDY    71  68  90 S8        29.79S                  
OKLAHOMA CITY  CLOUDY    59  49  69 E8        29.75F                  
ALBUQUERQUE NM MOCLDY    52  29  41 N8        29.99R                  
SALT LAKE CITY CLEAR     47  36  65 SW6       30.03R                  
LOS ANGELES CA CLEAR     57  55  93 W6        29.98R                  
BOISE ID       CLEAR     49  23  36 NW8       30.08R                  
SEATTLE WA     CLEAR     52  42  69 N8        30.24S                  
$$

*** WEATHER ACROSS MANITOBA...SASKATCHEWAN AND ONTARIO ***
                ***ONTARIO***
  
CITY           SKY/WX    TMP DP  RH WIND       PRES   REMARKS
GERALDTON      MOCLDY    34  23  64 SE7       30.15S                  
THUNDER BAY    MOCLDY    36  28  75 E8        30.07F                  
SIOUX LOOKOUT  CLOUDY    39  19  45 SE7       29.93F                  
TORONTO        CLEAR     45  27  49 E13       30.22S                  
BIG TROUT LK   CLOUDY    37  23  56 SE12G17   30.04F                  
PICKLE LAKE    NOT AVBL                                               
DRYDEN         MOCLDY    41  18  38 SE10      29.89F                  
KENORA         CLOUDY    45  21  39 SE12G20   29.82                   
$$      
                *** MANITOBA***
  
CITY           SKY/WX    TMP DP  RH WIND       PRES   REMARKS
BRANDON        CLOUDY    45  37  76 NW18      29.82F                  
DAUPHIN        LGT RAIN  45  37  76 NW7       29.83S                  
ISLAND LAKE    CLOUDY    41  27  56 SE6       29.84F                  
PILOT MOUND      N/A     45  43  93 NW15        N/A                   
THE PAS        CLOUDY    36  34  93 N8        29.91S                  
THOMPSON       FLURRIES  32  30  93 NE20G29   29.94F WCI  20          
WINNIPEG       CLOUDY    48  36  61 W8        29.77S                  
LYNN LAKE      FLURRIES  25  23  93 NE15G21   30.11R WCI  12          
CHURCHILL      CLOUDY    18  16  93 NE10      30.31F WCI   6          
GILLAM         FRZ RAIN  27  23  86 NE18G29   30.03F DRFTSNOWWCI  13  
$$
                ***SASKATCHEWAN***
  
CITY           SKY/WX    TMP DP  RH WIND       PRES   REMARKS
ESTEVAN        MOCLDY    32  28  86 W9        29.96  WCI  24          
KINDERSLEY     PTCLDY    32  30  93 NW10      30.19S WCI  24          
LLOYDMINSTER   CLEAR     32  30  93 NW10      30.21S WCI  24          
PRINCE ALBERT  CLOUDY    37  32  81 N16       30.07R                  
REGINA         CLOUDY    39  34  81 NW22G33   29.99F                  

Return to Home page


Western Regional Climate Center, wrcc@dri.edu